Temperature
20 20 20 20 18 17 18 19 19 19 18 19 19 18 17 17 17 17 17 17 17 17 17 17 17 17 17 17 17 17 17 17 17 17 17 17 17 17 17 17 17 17 17 17 17 17 17 17 17
20 20 20 20 17 18 19 19 19 19 19 19 19 18 17 17 17 17 17 17 17 17 17 17 17 17 17 17 17 17 17 17 17 17 17 17 17 17 17 17 17 17 17 17 17 17 17 17 17
20 20 20 17 17 18 19 19 19 19 19 19 18 18 17 17 17 17 17 17 17 17 17 17 17 17 17 17 17 17 17 17 17 17 17 17 17 16 16 17 17 17 17 17 17 17 17 17 17
21 21 20 17 18 19 19 19 19 19 19 19 18 17 17 17 17 17 17 17 17 17 17 17 17 17 17 17 17 16 16 16 16 16 16 16 16 16 16 16 16 16 17 17 17 17 17 17 17
21 21 17 18 19 19 19 20 20 19 19 18 18 17 17 17 17 17 17 17 17 17 17 17 17 17 17 16 16 16 16 16 16 16 16 16 16 16 16 16 16 16 16 16 16 16 16 17 17
21 18 17 18 19 19 19 20 19 19 18 18 18 17 17 17 17 17 17 17 17 17 17 17 17 16 16 16 16 16 16 16 16 16 16 16 16 16 16 16 16 16 16 16 16 16 16 16 16
20 17 18 18 19 19 20 20 19 18 18 18 18 17 17 17 17 17 17 17 17 17 17 17 17 16 16 16 16 16 16 16 16 16 16 16 16 16 16 16 16 16 16 16 16 16 16 16 16
21 17 18 18 19 19 20 20 20 19 19 19 19 17 17 18 17 17 17 17 17 17 17 17 16 16 16 16 16 16 16 16 16 16 16 16 16 16 16 16 15 16 16 16 16 16 16 16 16
21 17 18 19 19 20 20 20 20 19 19 19 18 19 18 18 17 17 17 17 17 17 17 17 16 16 16 16 16 16 16 16 16 16 16 16 16 16 16 15 15 15 16 16 16 16 16 16 16
20 17 19 20 19 20 20 20 20 19 19 18 18 19 18 18 18 17 17 17 17 17 17 17 16 16 16 16 16 16 16 16 16 16 16 16 16 16 15 15 15 15 16 15 16 16 16 16 16
20 19 20 20 21 21 20 20 20 19 18 19 19 19 18 18 18 18 18 17 17 17 17 17 16 16 16 16 16 16 16 16 16 16 16 16 16 16 15 15 15 15 15 16 15 16 16 16 16
20 20 21 21 21 21 21 20 20 20 20 20 20 19 19 18 18 18 18 18 17 17 17 17 17 16 16 16 16 16 16 16 16 16 16 16 16 16 16 15 15 15 15 15 15 15 16 16 16
20 20 21 21 21 21 21 20 20 20 20 20 20 19 19 19 18 18 18 18 17 17 17 17 17 17 16 16 16 16 16 16 16 16 16 16 16 16 16 16 15 15 15 15 15 15 16 15 15
21 20 21 21 21 21 20 20 20 20 20 20 20 19 19 19 18 18 18 18 18 17 17 17 17 17 16 16 16 16 16 16 16 16 16 16 16 15 16 15 15 15 15 15 15 15 15 15 15
21 20 20 20 21 21 20 19 19 20 20 20 19 19 19 19 19 18 18 18 18 18 17 17 17 17 17 16 16 16 16 16 16 16 16 16 15 15 15 15 15 15 15 15 15 15 15 15 15
20 19 19 20 20 20 20 19 19 20 20 19 19 19 19 19 19 19 18 18 18 18 18 17 17 17 17 16 16 16 16 16 16 16 16 15 15 15 15 15 15 15 15 15 15 15 15 15 15
19 18 19 19 20 20 19 19 19 19 19 19 19 19 19 19 19 19 18 18 18 18 18 17 17 17 17 16 16 16 16 16 16 16 16 16 15 15 15 15 15 15 15 15 15 15 15 15 15
19 19 19 19 20 19 19 18 18 19 19 18 19 19 19 19 19 19 19 18 18 18 18 17 17 17 17 16 16 16 16 16 16 16 16 15 15 15 15 15 15 15 15 15 15 15 15 15 15
19 19 19 19 20 19 18 18 18 18 18 18 18 19 19 19 19 19 19 18 18 18 18 17 17 17 17 16 16 16 16 16 16 16 16 15 15 15 15 15 15 15 15 15 15 15 15 14 14
19 19 19 19 20 19 18 18 18 18 17 18 18 19 19 19 19 19 19 18 18 18 18 17 17 17 17 16 16 16 16 16 16 16 15 15 15 15 15 15 15 15 15 15 15 15 15 14 14
19 19 19 19 19 19 19 18 18 18 18 18 19 19 19 19 19 19 19 18 18 18 18 18 17 17 17 16 16 16 16 16 16 15 15 15 15 15 15 15 15 15 15 15 15 15 15 15 14
19 20 20 19 18 17 18 17 17 17 17 17 18 18 19 19 19 19 19 19 18 18 18 17 17 17 17 16 16 16 16 16 15 15 15 15 15 15 15 15 15 15 15 15 15 15 15 15 14
19 19 19 19 18 17 17 17 17 17 17 17 17 18 19 19 19 19 19 19 18 18 18 17 17 17 16 16 16 16 16 15 15 15 15 15 15 15 15 15 15 15 15 15 15 15 14 14 14
19 18 17 16 16 17 17 17 17 16 17 17 18 18 19 19 19 19 19 19 18 18 18 17 17 17 17 16 16 16 16 15 15 15 15 15 15 15 15 15 15 15 15 15 14 14 14 14 14
18 17 16 17 16 16 17 17 17 18 18 18 18 19 19 19 19 19 19 19 18 18 18 18 17 17 16 16 16 16 15 15 15 15 15 15 15 15 15 15 15 15 15 15 14 14 14 14 14
18 17 16 17 16 16 16 16 17 18 19 19 19 19 19 19 19 19 19 19 18 18 18 18 17 17 17 16 16 16 15 15 15 15 15 15 15 15 15 15 15 15 15 14 14 14 14 14 14
18 17 17 15 16 16 16 16 18 19 18 18 18 18 19 19 19 19 19 19 18 18 18 18 17 17 17 16 16 16 16 15 15 15 15 15 15 15 15 15 15 15 15 14 14 14 14 14 14
18 16 15 15 16 16 17 17 17 19 19 17 17 18 18 19 19 19 19 19 18 18 18 18 17 17 17 16 16 16 16 15 15 15 15 15 15 15 15 15 15 15 15 15 15 14 14 14 14
17 17 15 14 15 15 16 17 18 18 18 17 17 18 19 19 19 19 19 19 18 18 18 18 17 17 17 16 16 16 16 15 15 15 15 15 15 15 15 15 15 15 15 15 15 15 14 14 14
18 17 15 15 15 14 15 16 18 17 18 18 18 19 19 19 19 19 19 19 18 18 18 18 17 17 17 16 16 16 16 15 15 15 15 15 15 15 15 15 15 15 15 15 15 14 14 14 14
Wind_Speed
2 4 3 3 5 6 4 3 1 2 3 3 4 6 6 4 3 2 1 1 1 2 2 4 5 6 7 7 8 9 9 9 9 9 9 10 10 10 10 11 11 10 10 10 10 9 9 10 10
2 2 4 5 5 4 3 3 2 2 3 3 4 5 5 4 2 2 0 1 2 2 3 3 5 6 7 7 8 9 9 9 9 9 9 10 10 10 10 10 10 10 10 10 10 9 9 9 10
2 3 4 5 4 3 2 1 2 4 4 2 4 5 4 2 2 1 1 1 3 3 3 3 6 7 7 8 8 8 9 9 9 8 8 9 9 9 10 10 9 9 9 9 9 8 8 9 9
3 5 5 6 5 1 1 1 3 4 4 5 4 4 3 3 1 2 3 3 3 3 3 3 6 6 7 7 8 8 8 9 8 8 8 8 8 8 8 9 9 9 8 9 9 9 8 9 9
4 5 6 5 4 2 1 1 2 3 3 4 4 4 3 4 3 5 4 3 3 3 3 3 5 6 7 7 7 7 8 8 8 8 7 8 8 8 8 8 9 9 8 9 9 8 9 9 9
4 5 5 3 3 3 2 2 3 5 4 3 4 4 2 2 3 3 3 3 2 3 4 4 4 5 5 6 7 7 7 8 8 8 8 8 8 7 8 8 9 8 8 9 8 8 9 9 9
4 5 4 3 2 2 1 2 4 4 4 2 4 4 1 0 1 3 3 2 3 3 4 5 6 5 4 5 6 7 7 7 8 7 7 7 7 7 7 8 8 8 8 8 8 8 9 9 10
5 5 4 2 2 0 0 2 3 4 3 3 4 6 4 3 4 4 4 3 3 3 3 3 5 6 5 5 5 5 5 6 7 7 7 8 8 8 7 7 7 7 8 8 8 9 9 9 10
4 5 3 3 4 2 1 3 2 3 5 3 2 2 3 7 7 5 3 2 2 1 2 2 3 4 4 4 5 6 6 6 6 6 8 8 8 8 7 6 7 7 7 8 9 9 9 10 10
5 4 2 3 4 3 2 3 3 4 4 3 3 4 5 7 6 5 4 3 1 1 1 1 1 2 3 3 5 5 5 6 6 6 7 7 7 6 6 7 8 7 8 8 9 9 9 9 8
4 4 1 1 3 4 3 3 3 6 2 4 5 6 6 6 5 5 4 3 3 2 1 0 0 1 1 2 3 3 4 5 5 5 5 6 6 6 7 7 7 8 8 8 8 8 8 7 7
4 1 1 1 2 3 3 4 3 3 4 5 7 8 7 7 7 6 5 4 2 2 2 1 1 0 0 1 2 2 2 3 3 3 4 5 4 4 4 4 5 6 6 6 6 6 7 8 8
3 1 1 2 3 3 4 3 3 1 1 5 7 7 7 7 6 4 4 3 3 3 2 1 2 2 1 1 0 1 1 1 2 3 3 4 3 3 3 4 5 5 5 5 5 6 6 7 7
1 2 2 2 2 1 4 2 2 2 3 6 7 6 6 6 5 4 3 3 4 4 3 2 2 2 2 1 1 1 1 2 2 2 3 4 4 4 4 3 4 4 5 6 6 6 6 5 6
3 4 4 2 1 1 4 2 3 3 6 6 6 5 5 5 5 5 5 5 5 4 3 3 3 2 2 2 1 1 2 3 2 2 3 5 5 5 4 3 3 4 6 7 7 7 6 5 6
4 4 2 4 1 2 4 4 5 4 7 6 5 5 4 4 4 4 4 4 4 4 4 3 3 3 3 3 2 2 3 3 3 3 4 4 5 5 5 3 3 5 6 6 5 4 5 5 5
4 1 2 4 2 3 3 5 5 4 7 7 6 5 5 4 4 4 4 4 5 5 4 4 3 4 3 3 4 4 4 3 3 3 4 4 5 5 5 4 4 6 5 4 4 4 4 4 5
2 1 2 3 2 3 3 6 4 4 7 7 6 6 6 6 6 4 4 4 4 4 4 4 4 4 4 4 3 3 3 3 3 3 3 4 4 5 6 5 4 5 4 4 4 5 4 4 4
3 2 3 4 2 3 5 7 6 4 6 6 7 7 7 8 4 3 4 5 5 4 4 4 4 3 3 3 3 2 1 1 2 2 3 3 5 5 5 4 3 4 4 4 5 5 5 3 3
3 1 2 4 1 2 3 5 5 3 7 8 9 9 9 6 3 4 5 5 5 4 4 4 4 4 3 3 2 2 2 1 1 1 3 3 3 5 5 4 3 4 4 4 4 4 3 2 1
2 4 3 3 3 3 2 6 5 3 3 4 5 6 7 9 8 7 6 5 5 5 5 5 5 4 3 3 3 3 3 3 2 2 1 1 2 4 5 5 4 4 4 4 4 4 4 3 1
3 4 4 2 2 2 1 3 6 4 3 4 6 6 7 8 7 7 7 7 7 6 5 4 5 4 3 4 4 4 3 2 1 0 0 1 2 3 4 5 5 4 3 4 4 4 3 4 2
4 1 2 1 3 1 2 1 7 3 4 6 7 7 7 8 9 9 8 8 6 5 5 4 4 4 3 3 4 4 3 2 1 1 1 1 2 2 3 4 4 3 3 3 3 3 3 3 3
3 5 6 5 4 1 3 2 6 4 5 6 5 5 6 7 8 7 6 6 5 5 5 5 5 4 4 4 4 4 4 3 2 1 1 1 1 1 1 2 3 3 3 3 3 3 4 3 3
4 5 4 4 3 4 3 2 7 7 6 6 6 5 5 6 7 7 7 7 6 6 6 5 6 4 4 4 4 4 4 4 3 3 2 1 0 0 0 1 2 2 2 3 3 3 3 3 3
3 7 6 3 3 4 3 4 6 6 5 3 2 2 4 6 7 8 9 9 8 8 7 6 6 5 4 4 4 3 4 3 2 2 2 2 2 1 1 2 2 2 3 3 3 2 2 2 2
5 3 6 6 2 1 5 6 7 3 4 4 3 2 3 5 6 7 7 8 8 9 8 8 7 5 5 5 4 3 3 3 3 2 2 1 1 1 2 3 3 3 3 3 3 2 2 3 2
5 7 5 5 3 2 5 4 4 6 4 2 1 1 2 3 4 6 7 8 8 8 7 6 6 6 5 5 4 4 3 3 3 3 2 2 1 1 3 3 3 3 2 3 3 2 2 3 2
3 3 4 4 5 5 2 6 5 7 5 3 4 3 3 4 5 5 5 6 7 6 6 6 6 5 4 5 4 4 3 3 3 3 3 2 1 2 3 3 3 3 3 3 3 3 3 3 2
3 5 6 4 3 4 3 7 6 4 4 3 4 3 2 4 4 4 5 5 6 7 6 7 6 6 5 5 4 4 3 3 3 3 3 3 2 2 3 3 3 3 3 3 3 3 3 3 2
Wind_Direction
62 85 86 61 54 54 50 9 25 52 53 42 59 75 82 66 67 114 294 5 78 65 53 79 89 91 95 100 100 98 97 98 100 101 99 101 101 101 104 104 101 98 96 91 86 86 89 91 93
90 87 59 59 74 67 27 355 55 69 133 131 69 68 72 67 64 100 0 1 70 80 70 86 96 94 97 102 101 97 94 95 97 100 103 102 102 101 101 102 103 101 98 94 88 84 86 88 89
101 62 73 65 76 109 111 20 100 81 82 76 70 56 67 68 86 147 222 118 75 68 70 99 105 100 96 98 99 99 97 98 99 100 102 102 103 102 101 102 103 101 98 97 94 86 84 85 85
79 46 55 65 69 53 145 157 130 110 66 49 80 64 52 18 109 149 124 98 83 54 51 89 108 106 101 100 102 100 97 97 99 96 99 101 103 104 103 103 100 97 95 94 91 85 81 84 83
62 71 61 54 42 13 17 74 105 84 66 53 79 83 40 360 73 108 110 97 88 48 35 62 102 104 107 108 106 103 96 94 93 96 97 98 98 100 101 99 95 92 89 86 83 79 80 83 84
55 64 77 74 37 15 6 32 86 74 84 82 88 92 39 18 91 120 110 94 83 63 36 33 84 103 109 115 111 103 97 90 87 89 92 96 96 96 96 95 91 87 85 81 78 77 83 82 81
94 82 96 111 75 30 43 56 88 93 86 101 120 104 70 9 132 119 107 88 69 55 43 25 31 49 74 100 104 100 92 86 81 83 86 88 88 87 88 91 92 89 87 82 79 78 78 79 80
111 95 84 100 115 81 35 72 87 96 104 109 117 135 186 196 140 109 91 75 65 53 35 23 31 37 42 56 76 85 84 82 79 74 75 72 65 65 73 76 82 83 80 79 79 73 74 75 79
83 76 108 170 161 172 142 98 70 70 97 77 74 151 168 132 124 112 87 58 41 43 18 24 36 33 35 42 52 56 62 68 68 65 64 59 50 48 51 66 75 76 74 73 76 71 69 68 72
77 101 181 198 175 160 143 126 135 92 76 69 65 66 104 119 133 139 144 160 179 248 293 5 24 19 23 40 47 46 49 57 60 60 59 55 52 45 47 54 63 63 65 63 69 67 64 64 63
88 132 158 115 153 140 130 121 122 126 149 190 171 156 140 141 153 164 176 187 209 228 243 202 296 15 38 36 40 43 49 53 54 56 62 60 56 53 50 46 45 51 55 56 63 61 59 62 65
84 62 135 149 135 129 142 133 122 165 204 190 169 157 156 166 181 188 191 198 192 188 231 219 154 116 54 65 52 57 61 65 59 56 70 69 63 60 56 49 47 53 56 57 63 70 65 66 68
79 49 36 78 92 116 112 114 138 206 124 125 136 150 170 182 192 199 190 183 179 192 216 207 169 173 141 108 90 87 77 89 89 79 84 95 89 72 69 59 56 60 64 68 74 76 74 71 70
115 84 43 44 67 67 110 79 103 229 134 133 151 176 192 196 196 186 182 184 189 198 198 183 178 178 145 134 133 111 98 111 105 96 103 113 107 97 86 72 69 67 73 79 83 85 82 75 75
85 64 23 355 80 114 99 13 232 209 148 153 175 192 204 212 202 198 196 189 188 196 187 174 180 153 142 138 136 107 98 106 107 104 108 116 116 111 104 90 78 81 91 93 87 82 79 77 73
60 58 10 297 193 142 123 260 261 177 159 179 192 201 203 208 211 211 196 180 176 172 170 178 163 141 135 123 110 100 96 102 107 109 110 114 122 123 112 101 93 98 99 95 91 83 81 75 73
36 50 278 295 239 147 158 248 269 176 174 193 200 206 208 211 222 219 197 174 168 166 160 157 143 135 131 112 94 85 81 80 82 97 107 112 120 122 112 105 108 108 99 94 102 85 91 91 83
226 226 267 265 265 155 208 254 272 192 189 204 207 209 211 213 223 208 182 163 152 146 141 142 129 125 120 99 85 68 59 53 62 77 100 117 120 118 111 106 107 109 103 92 95 94 78 87 88
167 183 264 265 243 180 232 260 270 219 206 215 216 216 219 225 227 184 165 149 134 128 134 144 142 142 129 112 106 95 77 42 45 60 78 103 118 124 119 115 107 108 111 119 120 111 95 83 94
159 204 284 303 341 172 259 285 284 234 217 216 212 212 215 219 200 181 165 156 151 155 158 155 156 158 157 137 125 120 114 92 64 44 61 78 118 131 134 132 131 121 120 120 126 123 116 109 92
193 195 227 256 359 35 18 326 312 292 250 230 224 211 207 205 198 190 176 174 163 171 178 176 172 166 159 137 113 88 64 45 40 29 8 15 117 132 137 140 136 135 139 149 153 148 144 150 87
248 236 207 188 91 309 45 307 300 297 296 250 238 218 213 209 195 188 181 179 182 187 177 170 167 161 152 140 138 138 138 145 189 200 325 15 84 117 136 144 141 145 147 156 170 161 152 143 143
215 82 112 131 139 21 5 196 296 328 297 270 247 224 214 203 192 190 186 185 183 174 169 167 162 157 152 151 149 139 136 150 134 83 66 31 41 90 126 141 143 146 154 164 166 155 155 149 151
136 71 52 47 74 350 270 180 291 272 251 277 262 234 212 197 188 184 175 163 161 157 160 159 159 165 160 158 155 155 158 155 141 134 116 47 29 44 97 136 142 148 151 159 168 163 158 157 147
84 88 36 6 12 264 280 200 255 266 258 248 251 232 204 186 178 173 170 171 171 168 170 166 165 175 175 169 170 171 171 168 175 180 175 172 162 57 205 137 135 141 153 156 149 142 153 159 155
153 137 152 188 229 286 324 249 259 276 293 282 241 195 164 171 179 182 183 181 180 179 175 171 175 183 179 179 182 176 170 172 187 187 179 183 192 204 171 141 132 130 132 137 132 121 138 137 151
135 151 158 133 153 292 292 294 304 302 355 16 37 77 163 182 185 188 184 183 181 180 182 180 178 182 185 186 176 174 178 179 182 174 167 169 182 166 138 131 128 125 128 137 127 116 121 120 123
134 142 105 120 150 256 297 288 266 288 297 336 340 231 220 191 189 189 186 186 186 184 180 177 176 182 184 181 180 182 185 183 170 151 161 172 164 133 128 127 129 121 120 126 118 113 114 113 110
91 102 112 125 150 160 259 276 237 243 253 255 254 238 209 196 198 195 191 187 178 171 171 176 178 174 177 181 176 170 181 169 154 159 171 173 157 148 146 145 143 138 131 121 124 128 120 112 101
146 157 144 152 208 176 183 267 280 261 266 257 262 256 226 202 196 184 173 165 165 172 177 180 182 182 186 180 169 172 171 156 160 175 179 168 170 172 163 148 148 145 137 135 141 142 136 136 137
Height
1505 1505 1505 1507 1510 1520 1525 1522 1518 1518 1519 1519 1519 1519 1521 1524 1527 1532 1528 1525 1525 1524 1524 1524 1524 1524 1524 1524 1524 1525 1525 1526 1526 1527 1527 1528 1528 1529 1529 1530 1530 1531 1531 1532 1532 1532 1534 1534 1535
1506 1506 1507 1508 1518 1532 1530 1522 1520 1519 1519 1520 1520 1521 1522 1524 1526 1527 1526 1526 1526 1525 1525 1524 1524 1525 1525 1525 1526 1526 1526 1527 1527 1528 1528 1529 1529 1530 1530 1531 1532 1532 1533 1533 1533 1534 1535 1536 1536
1506 1507 1509 1512 1523 1531 1528 1521 1520 1520 1520 1520 1522 1523 1524 1526 1527 1527 1528 1527 1527 1527 1526 1526 1526 1526 1526 1526 1527 1527 1527 1528 1528 1529 1530 1530 1530 1531 1532 1532 1533 1533 1534 1534 1535 1535 1536 1537 1537
1508 1509 1511 1519 1526 1525 1522 1521 1520 1520 1521 1522 1523 1525 1527 1528 1528 1529 1529 1528 1528 1528 1527 1527 1527 1527 1527 1527 1528 1529 1529 1529 1529 1530 1531 1531 1532 1532 1533 1533 1534 1534 1535 1536 1536 1537 1537 1538 1538
1509 1510 1518 1527 1527 1523 1521 1521 1521 1521 1523 1524 1524 1527 1528 1529 1529 1530 1530 1530 1530 1530 1529 1528 1528 1528 1529 1529 1530 1530 1530 1530 1531 1531 1532 1532 1533 1533 1534 1534 1535 1535 1536 1537 1537 1538 1539 1539 1539
1510 1512 1528 1533 1529 1524 1522 1522 1522 1523 1524 1525 1526 1528 1530 1531 1531 1531 1531 1531 1531 1531 1531 1530 1530 1530 1530 1531 1531 1532 1532 1532 1532 1533 1533 1533 1534 1535 1535 1535 1536 1536 1537 1538 1538 1539 1540 1540 1541
1512 1519 1528 1530 1530 1527 1524 1523 1523 1524 1525 1527 1527 1529 1531 1532 1532 1532 1533 1533 1533 1533 1533 1532 1531 1532 1532 1532 1533 1533 1533 1534 1534 1534 1535 1535 1536 1536 1536 1537 1537 1538 1538 1539 1539 1540 1541 1541 1542
1512 1519 1528 1530 1530 1528 1524 1524 1525 1525 1527 1528 1528 1529 1531 1532 1533 1533 1534 1534 1534 1534 1534 1534 1534 1533 1534 1534 1534 1535 1535 1536 1536 1536 1536 1537 1537 1537 1537 1538 1539 1539 1539 1540 1541 1541 1542 1542 1543
1514 1524 1531 1529 1528 1527 1524 1525 1526 1527 1527 1528 1529 1530 1531 1532 1533 1534 1535 1535 1535 1536 1536 1536 1536 1536 1535 1536 1536 1536 1537 1537 1538 1538 1539 1539 1539 1539 1539 1540 1540 1540 1541 1541 1542 1542 1543 1544 1544
1515 1528 1526 1523 1523 1524 1524 1525 1526 1528 1528 1529 1530 1530 1531 1533 1534 1535 1535 1536 1536 1537 1537 1537 1537 1538 1538 1538 1538 1538 1539 1539 1540 1540 1541 1541 1541 1541 1541 1541 1542 1542 1542 1543 1543 1544 1544 1545 1545
1517 1523 1522 1522 1522 1523 1524 1526 1526 1528 1530 1529 1529 1531 1532 1533 1534 1535 1536 1537 1538 1538 1539 1539 1539 1540 1540 1540 1540 1540 1541 1541 1542 1542 1542 1543 1543 1543 1543 1543 1543 1543 1544 1544 1544 1545 1546 1546 1547
1519 1521 1521 1522 1522 1523 1525 1526 1527 1527 1529 1529 1530 1531 1532 1533 1535 1536 1537 1538 1539 1539 1540 1541 1541 1541 1541 1542 1542 1542 1543 1543 1543 1544 1544 1544 1545 1545 1545 1545 1545 1545 1545 1545 1546 1546 1547 1547 1548
1521 1522 1522 1523 1523 1524 1525 1526 1527 1527 1528 1529 1531 1532 1533 1534 1535 1537 1538 1539 1539 1540 1541 1542 1542 1543 1543 1543 1544 1544 1544 1545 1545 1545 1545 1546 1546 1546 1546 1546 1546 1546 1547 1547 1547 1548 1548 1548 1549
1522 1523 1524 1524 1524 1525 1526 1527 1528 1528 1529 1530 1531 1532 1533 1535 1536 1537 1538 1539 1540 1541 1542 1543 1543 1544 1544 1545 1545 1545 1546 1546 1546 1547 1547 1547 1547 1547 1547 1547 1547 1548 1548 1548 1549 1549 1549 1549 1550
1523 1525 1526 1526 1525 1526 1528 1530 1528 1527 1529 1530 1531 1532 1534 1535 1536 1537 1538 1539 1540 1541 1542 1543 1544 1544 1545 1546 1546 1547 1547 1547 1547 1548 1548 1548 1548 1548 1548 1549 1549 1549 1549 1550 1550 1550 1551 1551 1551
1525 1530 1535 1528 1526 1527 1531 1536 1527 1527 1528 1529 1531 1532 1533 1535 1536 1537 1538 1539 1541 1542 1543 1544 1544 1545 1546 1546 1547 1547 1548 1548 1548 1549 1549 1549 1549 1550 1550 1550 1550 1550 1551 1551 1551 1552 1552 1552 1552
1533 1539 1537 1532 1526 1527 1531 1533 1526 1526 1528 1528 1530 1531 1533 1534 1535 1537 1538 1540 1541 1542 1543 1544 1545 1546 1546 1547 1548 1548 1549 1549 1549 1550 1550 1550 1550 1551 1551 1551 1551 1552 1552 1552 1552 1553 1553 1553 1553
1539 1538 1537 1535 1528 1528 1531 1531 1526 1526 1527 1527 1529 1530 1531 1533 1534 1536 1538 1539 1541 1542 1543 1544 1545 1546 1547 1547 1548 1549 1549 1550 1550 1550 1551 1551 1551 1552 1552 1552 1552 1553 1553 1553 1553 1554 1554 1554 1555
1531 1535 1537 1533 1527 1529 1531 1530 1526 1525 1526 1527 1527 1528 1529 1531 1534 1536 1537 1539 1540 1542 1543 1544 1545 1546 1547 1547 1548 1549 1550 1550 1551 1551 1552 1552 1552 1553 1553 1553 1553 1553 1554 1554 1555 1555 1555 1556 1556
1531 1535 1536 1531 1526 1529 1531 1530 1525 1524 1524 1523 1524 1525 1527 1529 1532 1534 1536 1538 1540 1542 1543 1544 1545 1546 1547 1548 1548 1549 1550 1551 1551 1552 1552 1553 1553 1553 1553 1554 1554 1554 1555 1555 1556 1556 1556 1557 1557
1531 1534 1534 1533 1529 1529 1532 1534 1527 1523 1522 1522 1523 1523 1525 1527 1529 1532 1534 1537 1539 1541 1543 1544 1545 1546 1547 1548 1549 1549 1550 1551 1551 1552 1552 1553 1553 1554 1554 1554 1555 1555 1555 1556 1556 1557 1557 1557 1558
1534 1526 1528 1530 1537 1543 1538 1550 1532 1525 1523 1521 1520 1521 1522 1525 1527 1530 1532 1535 1538 1540 1542 1544 1545 1546 1547 1548 1549 1549 1550 1551 1551 1552 1552 1553 1553 1554 1554 1554 1555 1555 1556 1556 1557 1557 1557 1558 1558
1527 1524 1527 1531 1536 1543 1542 1547 1539 1527 1525 1520 1517 1517 1519 1522 1525 1528 1531 1534 1537 1539 1541 1543 1545 1546 1547 1548 1549 1549 1550 1551 1552 1552 1552 1553 1553 1554 1554 1554 1555 1555 1556 1556 1557 1557 1557 1558 1558
1523 1527 1532 1538 1543 1553 1545 1549 1544 1531 1524 1518 1514 1515 1516 1519 1522 1526 1530 1533 1536 1538 1541 1542 1544 1545 1547 1548 1548 1549 1550 1551 1551 1552 1552 1553 1553 1554 1554 1554 1555 1555 1556 1556 1557 1557 1557 1557 1558
1525 1538 1553 1555 1561 1557 1544 1545 1540 1521 1517 1515 1513 1513 1514 1517 1521 1524 1527 1531 1534 1536 1539 1541 1543 1544 1546 1547 1548 1549 1550 1550 1551 1551 1552 1552 1553 1553 1554 1554 1554 1555 1555 1556 1556 1557 1557 1557 1557
1528 1535 1554 1562 1564 1557 1545 1546 1531 1517 1514 1512 1511 1511 1513 1516 1519 1522 1525 1528 1532 1535 1537 1540 1542 1543 1545 1546 1547 1548 1549 1550 1550 1551 1551 1552 1553 1553 1554 1554 1554 1555 1555 1556 1556 1556 1556 1557 1557
1528 1535 1536 1549 1553 1558 1551 1540 1525 1514 1513 1511 1511 1511 1512 1515 1517 1520 1523 1526 1530 1533 1536 1538 1540 1542 1543 1545 1546 1547 1548 1549 1550 1551 1551 1552 1552 1553 1553 1554 1554 1555 1555 1555 1555 1555 1556 1556 1556
1523 1530 1541 1549 1559 1563 1552 1544 1536 1520 1515 1513 1512 1512 1512 1514 1516 1519 1521 1524 1528 1531 1534 1537 1539 1541 1542 1544 1545 1546 1547 1549 1549 1550 1551 1552 1552 1553 1553 1554 1554 1555 1555 1555 1555 1555 1555 1556 1556
1528 1532 1538 1547 1550 1560 1560 1547 1521 1517 1514 1513 1512 1512 1512 1513 1515 1517 1519 1522 1526 1529 1532 1535 1537 1539 1541 1542 1544 1545 1547 1548 1549 1550 1551 1551 1552 1552 1553 1553 1554 1554 1554 1555 1555 1555 1555 1555 1556
1522 1528 1536 1546 1551 1552 1555 1546 1514 1513 1512 1512 1511 1512 1512 1513 1515 1516 1519 1521 1524 1526 1529 1532 1535 1537 1539 1541 1542 1544 1545 1547 1548 1549 1550 1551 1551 1552 1552 1553 1553 1554 1554 1554 1554 1554 1555 1555 1555